CDT,Max TemperatureF,Mean TemperatureF,Min TemperatureF,Max Dew PointF,MeanDew PointF,Min DewpointF,Max Humidity, Mean Humidity, Min Humidity, Max Sea Level PressureIn, Mean Sea Level PressureIn, Min Sea Level PressureIn, Max VisibilityMiles, Mean VisibilityMiles, Min VisibilityMiles, Max Wind SpeedMPH, Mean Wind SpeedMPH, Max Gust SpeedMPH,PrecipitationIn, CloudCover, Events, WindDirDegrees
2013-10-1,73,58,42,51,41,28,83,52,20,30.01,29.81,29.57,10,10,10,25,10,32,0.00,0,,261
2013-10-2,74,55,36,52,42,31,100,61,22,30.07,29.98,29.88,10,10,5,26,7,35,0.38,3,Rain-Thunderstorm,74
2013-10-3,54,53,51,52,51,48,100,95,89,30.02,29.92,29.89,10,8,1,14,7,20,0.66,8,Rain-Thunderstorm,44
2013-10-4,57,54,51,52,51,49,100,90,80,30.06,29.98,29.87,10,9,2,20,11,29,0.32,8,Rain-Thunderstorm,60
2013-10-5,55,51,46,54,49,42,100,89,77,29.86,29.80,29.74,10,6,1,17,7,28,0.04,8,Rain,121
2013-10-6,51,47,42,47,45,40,100,92,83,29.88,29.76,29.69,10,8,2,17,7,23,0.05,7,Rain,338
2013-10-7,65,53,41,45,41,38,100,69,37,30.00,29.95,29.87,10,10,10,13,4,16,0.00,1,,299
2013-10-8,77,60,43,45,44,41,89,61,33,29.97,29.86,29.77,10,10,10,28,13,36,0.00,0,,161
2013-10-9,74,63,51,51,48,46,83,64,44,30.05,29.99,29.91,10,10,10,17,9,22,0.00,0,,167
2013-10-10,76,63,50,54,48,45,83,65,46,30.04,29.95,29.86,10,10,10,23,11,28,0.00,0,,135
2013-10-11,73,63,53,58,53,48,84,69,53,29.87,29.70,29.58,10,9,2,31,14,39,0.30,3,Rain-Thunderstorm,144
2013-10-12,53,48,42,46,42,38,96,82,68,30.20,29.90,29.67,10,10,6,23,12,31,0.07,7,Rain,242
2013-10-13,58,45,31,40,35,30,96,66,36,30.46,30.40,30.24,10,10,10,10,1,14,0.00,0,,274
2013-10-14,49,43,37,44,39,35,93,82,71,30.44,30.27,30.00,10,9,5,20,7,30,0.80,6,Rain,88
2013-10-15,49,46,43,47,45,41,100,96,92,29.94,29.78,29.70,10,4,2,20,11,30,1.06,8,Rain,32
2013-10-16,53,43,33,42,38,32,100,73,46,30.00,29.95,29.91,10,10,6,14,6,20,0.00,4,,318
2013-10-17,50,43,35,45,40,33,100,90,80,29.93,29.86,29.78,10,10,7,17,6,24,0.25,7,Rain,311
2013-10-18,51,42,33,38,34,28,100,73,46,30.03,29.95,29.86,10,10,10,18,7,37,0.01,5,Rain,287
2013-10-19,46,38,29,37,34,28,100,83,65,29.85,29.76,29.69,10,10,5,16,7,22,0.06,6,Rain,271
2013-10-20,36,33,29,34,31,25,100,86,72,29.96,29.75,29.64,10,6,0,22,6,26,0.27,8,Fog-Snow,33
2013-10-21,39,32,25,24,22,19,88,70,52,30.01,29.99,29.96,10,10,10,21,11,26,T,6,,294
2013-10-22,41,32,23,30,27,21,92,76,59,30.09,30.04,29.96,10,10,10,14,4,17,T,7,,316
2013-10-23,35,33,31,27,23,19,85,69,52,30.17,30.09,30.03,10,10,10,17,8,21,T,8,,319
2013-10-24,42,36,29,30,26,20,92,73,54,30.36,30.29,30.18,10,10,10,21,9,26,0.00,7,,295
2013-10-25,57,41,24,41,32,22,92,71,50,30.35,30.08,29.81,10,10,10,25,12,30,0.00,1,,223
2013-10-26,45,37,28,32,27,26,92,73,53,30.15,30.07,29.87,10,10,10,23,11,30,0.00,4,,313
2013-10-27,56,42,27,32,28,25,92,67,41,30.22,29.97,29.86,10,10,10,16,9,25,0.00,0,,289
2013-10-28,41,34,27,27,21,19,85,65,44,30.53,30.45,30.26,10,10,10,18,7,23,0.00,0,,40
2013-10-29,35,32,29,34,28,24,100,86,72,30.48,30.29,30.10,10,9,2,10,5,15,0.06,7,Snow,67
2013-10-30,45,40,34,43,39,33,100,96,92,30.15,29.92,29.72,6,1,0,9,3,13,0.01,8,Fog-Rain,71
2013-10-31,43,41,38,43,39,36,100,93,85,29.69,29.54,29.40,10,5,0,14,8,18,T,8,Fog,291